Location: Newark
(45.5000°N, 11.4167°E)
Time: 01:45:29
(UTC+00:00)

Transit 2A Rocket - Pass Details

Date: 31 August 2019
Orbit: 592 x 911 km, 66.7° (Epoch: 19 September)

Event Time Altitude Azimuth Distance (km) Brightness Sun altitude
Rises 18:24:04 0° 266° (W) 3,346 9.8 -5.8°
Reaches altitude 10° 18:27:35 10° 287° (WNW) 2,349 9.4 -6.4°
Maximum altitude 18:30:49 16° 325° (NW) 1,908 7.9 -6.9°
Drops below altitude 10° 18:33:54 10° 2° (N) 2,223 7.6 -7.4°
Sets 18:37:06 0° 25° (NNE) 3,076 8.1 -7.9°
